User: anonymous   Login
Location: Berkeley
(37.8716°N, 122.2727°W)
Time: 12:05:52
(UTC-07:00)
Language:

Hubble Space Telescope - Orbit

View from above orbital plane
View from above orbital plane
View from above satellite
View from above satellite

Ground track
Ground track

The orbit data is extracted from the following two-line orbital elements,

1 20580U 90037B   21294.39035668  .00000865  00000-0  41204-4 0  9996
2 20580  28.4708 311.7144 0002586 345.1049 144.2511 15.09789935530040
Epoch (UTC): 21 October 2021 09:22:06
Eccentricity: 0.0002586
inclination: 28.4708°
perigee height: 535 km
apogee height: 538 km
right ascension of ascending node: 311.7144°
argument of perigee: 345.1049°
revolutions per day: 15.09789935
mean anomaly at epoch: 144.2511°
orbit number at epoch: 53004

The dashed part of the orbit path shows where the satellite is in the earth's shadow,  

DLR